Time,TemperatureF,DewpointF,PressureIn,WindDirection,WindDirectionDegrees,WindSpeedMPH,WindSpeedGustMPH,Humidity,HourlyPrecipIn,Conditions,Clouds,dailyrainin,SoftwareType,DateUTC
2013-05-10 00:02:00,44.0,34.0,30.09,East,95,4.0,13.0,67,0.00,,,0.00,,2013-05-10 05:02:00,
2013-05-10 00:12:00,44.0,35.0,30.10,NNE,29,4.0,5.0,70,0.00,,,0.00,,2013-05-10 05:12:00,
2013-05-10 00:22:00,44.0,35.0,30.10,NNE,29,4.0,5.0,70,0.00,,,0.00,,2013-05-10 05:22:00,
2013-05-10 00:32:00,43.0,34.0,30.10,East,98,7.0,10.0,70,0.00,,,0.00,,2013-05-10 05:32:00,
2013-05-10 00:42:00,43.0,34.0,30.11,East,95,6.0,8.0,69,0.00,,,0.00,,2013-05-10 05:42:00,
2013-05-10 00:52:00,43.0,34.0,30.11,East,95,6.0,8.0,69,0.00,,,0.00,,2013-05-10 05:52:00,
2013-05-10 01:01:00,42.0,33.0,30.10,East,84,0.0,6.0,71,0.00,,,0.00,,2013-05-10 06:01:00,
2013-05-10 01:12:00,42.0,33.0,30.11,ENE,68,5.0,10.0,71,0.00,,,0.00,,2013-05-10 06:12:00,
2013-05-10 01:21:00,42.0,33.0,30.11,ENE,68,5.0,10.0,71,0.00,,,0.00,,2013-05-10 06:21:00,
2013-05-10 01:32:00,42.0,34.0,30.11,East,98,6.0,9.0,72,0.00,,,0.00,,2013-05-10 06:32:00,
2013-05-10 01:42:00,41.0,33.0,30.11,East,82,7.0,11.0,72,0.00,,,0.00,,2013-05-10 06:42:00,
2013-05-10 01:52:00,41.0,33.0,30.11,East,82,7.0,11.0,72,0.00,,,0.00,,2013-05-10 06:52:00,
2013-05-10 02:01:00,41.0,33.0,30.11,NE,39,3.0,9.0,73,0.00,,,0.00,,2013-05-10 07:01:00,
2013-05-10 02:12:00,41.0,33.0,30.11,NE,39,3.0,9.0,73,0.00,,,0.00,,2013-05-10 07:12:00,
2013-05-10 02:22:00,41.0,33.0,30.10,ENE,70,0.0,6.0,73,0.00,,,0.00,,2013-05-10 07:22:00,
2013-05-10 02:31:00,42.0,34.0,30.10,ENE,61,2.0,4.0,72,0.00,,,0.00,,2013-05-10 07:31:00,
2013-05-10 02:42:00,42.0,33.0,30.10,ESE,105,3.0,10.0,71,0.00,,,0.00,,2013-05-10 07:42:00,
2013-05-10 02:52:00,42.0,33.0,30.10,ESE,105,3.0,10.0,71,0.00,,,0.00,,2013-05-10 07:52:00,
2013-05-10 03:02:00,42.0,34.0,30.10,SE,126,4.0,6.0,72,0.00,,,0.00,,2013-05-10 08:02:00,
2013-05-10 03:12:00,42.0,33.0,30.09,East,101,8.0,11.0,70,0.00,,,0.00,,2013-05-10 08:12:00,
2013-05-10 03:21:00,42.0,33.0,30.09,East,101,8.0,11.0,70,0.00,,,0.00,,2013-05-10 08:21:00,
2013-05-10 03:32:00,42.0,34.0,30.10,East,95,7.0,7.0,72,0.00,,,0.00,,2013-05-10 08:32:00,
2013-05-10 03:42:00,42.0,34.0,30.10,ENE,75,3.0,8.0,74,0.00,,,0.00,,2013-05-10 08:42:00,
2013-05-10 03:52:00,42.0,34.0,30.10,ENE,75,3.0,8.0,74,0.00,,,0.00,,2013-05-10 08:52:00,
2013-05-10 04:01:00,41.0,34.0,30.10,East,84,4.0,9.0,75,0.00,,,0.00,,2013-05-10 09:01:00,
2013-05-10 04:11:00,40.0,33.0,30.10,ENE,59,3.0,6.0,77,0.00,,,0.00,,2013-05-10 09:11:00,
2013-05-10 04:21:00,40.0,33.0,30.10,ENE,59,3.0,6.0,77,0.00,,,0.00,,2013-05-10 09:21:00,
2013-05-10 04:32:00,40.0,33.0,30.10,NE,49,9.0,9.0,77,0.00,,,0.00,,2013-05-10 09:32:00,
2013-05-10 04:42:00,39.0,33.0,30.10,ENE,59,0.0,1.0,80,0.00,,,0.00,,2013-05-10 09:42:00,
2013-05-10 04:52:00,39.0,33.0,30.10,ENE,59,0.0,1.0,80,0.00,,,0.00,,2013-05-10 09:52:00,
2013-05-10 05:02:00,39.0,34.0,30.10,ESE,104,0.0,4.0,81,0.00,,,0.00,,2013-05-10 10:02:00,
2013-05-10 05:12:00,38.0,33.0,30.11,NE,43,4.0,4.0,82,0.00,,,0.00,,2013-05-10 10:12:00,
2013-05-10 05:23:00,38.0,33.0,30.11,NE,43,4.0,4.0,82,0.00,,,0.00,,2013-05-10 10:23:00,
2013-05-10 05:32:00,37.0,32.0,30.11,North,2,0.0,3.0,82,0.00,,,0.00,,2013-05-10 10:32:00,
2013-05-10 05:42:00,37.0,32.0,30.11,ENE,61,0.0,3.0,83,0.00,,,0.00,,2013-05-10 10:42:00,
2013-05-10 05:52:00,37.0,32.0,30.11,ENE,61,0.0,3.0,83,0.00,,,0.00,,2013-05-10 10:52:00,
2013-05-10 06:02:00,35.0,31.0,30.11,NE,43,0.0,5.0,84,0.00,,,0.00,,2013-05-10 11:02:00,
2013-05-10 06:12:00,36.0,32.0,30.11,NE,50,0.0,4.0,84,0.00,,,0.00,,2013-05-10 11:12:00,
2013-05-10 06:21:00,36.0,32.0,30.11,NE,50,0.0,4.0,84,0.00,,,0.00,,2013-05-10 11:21:00,
2013-05-10 06:32:00,36.0,31.0,30.11,NNE,30,0.0,8.0,83,0.00,,,0.00,,2013-05-10 11:32:00,
2013-05-10 06:42:00,36.0,32.0,30.11,NE,40,0.0,6.0,84,0.00,,,0.00,,2013-05-10 11:42:00,
2013-05-10 06:52:00,36.0,32.0,30.11,NE,40,0.0,6.0,84,0.00,,,0.00,,2013-05-10 11:52:00,
2013-05-10 07:01:00,36.0,31.0,30.11,ESE,113,4.0,8.0,83,0.00,,,0.00,,2013-05-10 12:01:00,
2013-05-10 07:11:00,37.0,32.0,30.11,ESE,111,0.0,5.0,82,0.00,,,0.00,,2013-05-10 12:11:00,
2013-05-10 07:21:00,37.0,32.0,30.11,ESE,111,0.0,5.0,82,0.00,,,0.00,,2013-05-10 12:21:00,
2013-05-10 07:32:00,38.0,33.0,30.11,NE,39,3.0,8.0,82,0.00,,,0.00,,2013-05-10 12:32:00,
2013-05-10 07:42:00,38.0,33.0,30.11,NE,39,3.0,8.0,82,0.00,,,0.00,,2013-05-10 12:42:00,
2013-05-10 07:52:00,39.0,33.0,30.12,SSE,147,0.0,7.0,79,0.00,,,0.00,,2013-05-10 12:52:00,
2013-05-10 08:01:00,39.0,32.0,30.12,East,88,7.0,11.0,77,0.00,,,0.00,,2013-05-10 13:01:00,
2013-05-10 08:11:00,39.0,32.0,30.12,East,88,7.0,11.0,77,0.00,,,0.00,,2013-05-10 13:11:00,
2013-05-10 08:21:00,40.0,33.0,30.12,ENE,78,8.0,9.0,75,0.00,,,0.00,,2013-05-10 13:21:00,
2013-05-10 08:32:00,40.0,33.0,30.12,ENE,78,8.0,9.0,75,0.00,,,0.00,,2013-05-10 13:32:00,
2013-05-10 08:41:00,41.0,32.0,30.11,East,87,0.0,8.0,71,0.00,,,0.00,,2013-05-10 13:41:00,
2013-05-10 08:52:00,41.0,32.0,30.11,East,87,0.0,8.0,71,0.00,,,0.00,,2013-05-10 13:52:00,
2013-05-10 09:02:00,42.0,33.0,30.11,East,92,0.0,8.0,70,0.00,,,0.00,,2013-05-10 14:02:00,
2013-05-10 09:11:00,43.0,33.0,30.11,East,90,6.0,9.0,67,0.00,,,0.00,,2013-05-10 14:11:00,
2013-05-10 09:21:00,43.0,33.0,30.11,East,90,6.0,9.0,67,0.00,,,0.00,,2013-05-10 14:21:00,
2013-05-10 09:32:00,43.0,34.0,30.10,NE,50,4.0,8.0,69,0.00,,,0.00,,2013-05-10 14:32:00,
2013-05-10 09:41:00,44.0,34.0,30.10,ENE,67,5.0,5.0,67,0.00,,,0.00,,2013-05-10 14:41:00,
2013-05-10 09:52:00,44.0,34.0,30.10,ENE,67,5.0,5.0,67,0.00,,,0.00,,2013-05-10 14:52:00,
2013-05-10 10:01:00,45.0,33.0,30.09,East,85,0.0,7.0,63,0.00,,,0.00,,2013-05-10 15:01:00,
2013-05-10 10:20:00,-999.0,-99.9,30.09,NNE,22,3.0,4.0,64,0.00,,,0.00,,2013-05-10 15:20:00,
2013-05-10 10:32:00,47.0,33.0,30.09,NE,36,0.0,7.0,57,0.00,,,0.00,,2013-05-10 15:32:00,
2013-05-10 10:42:00,48.0,33.0,30.09,ESE,115,9.0,9.0,55,0.00,,,0.00,,2013-05-10 15:42:00,
2013-05-10 10:53:00,48.0,33.0,30.09,ESE,115,9.0,9.0,55,0.00,,,0.00,,2013-05-10 15:53:00,
2013-05-10 11:02:00,49.0,34.0,30.09,NE,52,3.0,8.0,57,0.00,,,0.00,,2013-05-10 16:02:00,
2013-05-10 11:12:00,49.0,32.0,30.09,East,97,0.0,7.0,52,0.00,,,0.00,,2013-05-10 16:12:00,
2013-05-10 11:23:00,49.0,32.0,30.09,East,97,0.0,7.0,52,0.00,,,0.00,,2013-05-10 16:23:00,
2013-05-10 11:32:00,50.0,32.0,30.09,ESE,122,5.0,8.0,50,0.00,,,0.00,,2013-05-10 16:32:00,
2013-05-10 11:42:00,51.0,33.0,30.08,East,94,0.0,7.0,49,0.00,,,0.00,,2013-05-10 16:42:00,
2013-05-10 11:52:00,51.0,33.0,30.08,East,94,0.0,7.0,49,0.00,,,0.00,,2013-05-10 16:52:00,
2013-05-10 12:02:00,52.0,33.0,30.07,NE,50,0.0,2.0,49,0.00,,,0.00,,2013-05-10 17:02:00,
2013-05-10 12:12:00,52.0,33.0,30.07,East,81,2.0,5.0,48,0.00,,,0.00,,2013-05-10 17:12:00,
2013-05-10 12:22:00,52.0,33.0,30.07,East,81,2.0,5.0,48,0.00,,,0.00,,2013-05-10 17:22:00,
2013-05-10 12:32:00,53.0,33.0,30.07,North,2,4.0,8.0,47,0.00,,,0.00,,2013-05-10 17:32:00,
2013-05-10 12:42:00,54.0,34.0,30.06,NE,46,0.0,6.0,46,0.00,,,0.00,,2013-05-10 17:42:00,
2013-05-10 12:52:00,54.0,34.0,30.06,NE,46,0.0,6.0,46,0.00,,,0.00,,2013-05-10 17:52:00,
2013-05-10 13:10:00,-999.0,-99.9,30.06,ENE,68,0.0,0.0,43,0.00,,,0.00,,2013-05-10 18:10:00,
2013-05-10 13:22:00,55.0,32.0,30.05,East,90,7.0,8.0,42,0.00,,,0.00,,2013-05-10 18:22:00,
2013-05-10 13:34:00,56.0,34.0,30.05,North,350,0.0,9.0,43,0.00,,,0.00,,2013-05-10 18:34:00,
2013-05-10 13:43:00,57.0,33.0,30.04,North,0,0.0,6.0,40,0.00,,,0.00,,2013-05-10 18:43:00,
2013-05-10 13:54:00,57.0,33.0,30.04,North,0,0.0,6.0,40,0.00,,,0.00,,2013-05-10 18:54:00,
2013-05-10 14:02:00,57.0,36.0,30.03,SSE,160,0.0,0.0,45,0.00,,,0.00,,2013-05-10 19:02:00,
2013-05-10 14:11:00,59.0,34.0,30.03,NNE,14,5.0,5.0,39,0.00,,,0.00,,2013-05-10 19:11:00,
2013-05-10 14:21:00,59.0,34.0,30.03,NNE,14,5.0,5.0,39,0.00,,,0.00,,2013-05-10 19:21:00,
2013-05-10 14:32:00,59.0,35.0,30.02,NNE,12,0.0,0.0,40,0.00,,,0.00,,2013-05-10 19:32:00,
2013-05-10 14:42:00,59.0,36.0,30.02,NNE,12,0.0,0.0,42,0.00,,,0.00,,2013-05-10 19:42:00,
2013-05-10 14:52:00,59.0,36.0,30.02,NNE,12,0.0,0.0,42,0.00,,,0.00,,2013-05-10 19:52:00,
2013-05-10 15:01:00,59.0,36.0,30.02,NNE,12,0.0,0.0,42,0.00,,,0.00,,2013-05-10 20:01:00,
2013-05-10 15:12:00,60.0,36.0,30.01,NNW,343,0.0,3.0,40,0.00,,,0.00,,2013-05-10 20:12:00,
2013-05-10 15:21:00,60.0,36.0,30.01,NNW,343,0.0,3.0,40,0.00,,,0.00,,2013-05-10 20:21:00,
2013-05-10 15:32:00,61.0,35.0,30.00,SSW,213,0.0,0.0,37,0.00,,,0.00,,2013-05-10 20:32:00,
2013-05-10 15:41:00,61.0,35.0,30.00,SSW,213,0.0,0.0,37,0.00,,,0.00,,2013-05-10 20:41:00,
2013-05-10 15:52:00,63.0,33.0,30.00,NNE,12,0.0,5.0,32,0.00,,,0.00,,2013-05-10 20:52:00,
2013-05-10 16:02:00,63.0,34.0,29.99,WNW,288,0.0,0.0,34,0.00,,,0.00,,2013-05-10 21:02:00,
2013-05-10 16:11:00,65.0,34.0,29.98,West,279,0.0,5.0,31,0.00,,,0.00,,2013-05-10 21:11:00,
2013-05-10 16:24:00,65.0,34.0,29.98,West,279,0.0,5.0,31,0.00,,,0.00,,2013-05-10 21:24:00,
2013-05-10 16:32:00,64.0,33.0,29.97,SSW,208,0.0,2.0,31,0.00,,,0.00,,2013-05-10 21:32:00,
2013-05-10 16:43:00,64.0,33.0,29.97,SSW,208,0.0,2.0,31,0.00,,,0.00,,2013-05-10 21:43:00,
2013-05-10 16:52:00,64.0,33.0,29.97,SSW,208,0.0,2.0,31,0.00,,,0.00,,2013-05-10 21:52:00,
2013-05-10 17:02:00,64.0,32.0,29.96,NNW,330,4.0,6.0,30,0.00,,,0.00,,2013-05-10 22:02:00,
2013-05-10 17:12:00,65.0,33.0,29.96,NNW,336,0.0,6.0,30,0.00,,,0.00,,2013-05-10 22:12:00,
2013-05-10 17:22:00,65.0,33.0,29.96,NNW,336,0.0,6.0,30,0.00,,,0.00,,2013-05-10 22:22:00,
2013-05-10 17:32:00,65.0,35.0,29.95,NW,313,5.0,6.0,33,0.00,,,0.00,,2013-05-10 22:32:00,
2013-05-10 17:42:00,65.0,34.0,29.95,NNE,26,4.0,6.0,32,0.00,,,0.00,,2013-05-10 22:42:00,
2013-05-10 17:52:00,65.0,34.0,29.95,NNE,26,4.0,6.0,32,0.00,,,0.00,,2013-05-10 22:52:00,
2013-05-10 18:02:00,65.0,35.0,29.94,SSE,168,0.0,8.0,33,0.00,,,0.00,,2013-05-10 23:02:00,
2013-05-10 18:12:00,65.0,35.0,29.94,SSE,168,0.0,8.0,33,0.00,,,0.00,,2013-05-10 23:12:00,
2013-05-10 18:22:00,65.0,34.0,29.94,SSW,210,0.0,0.0,32,0.00,,,0.00,,2013-05-10 23:22:00,
2013-05-10 18:32:00,65.0,35.0,29.93,SW,223,0.0,6.0,33,0.00,,,0.00,,2013-05-10 23:32:00,
2013-05-10 18:41:00,64.0,34.0,29.93,West,265,0.0,0.0,33,0.00,,,0.00,,2013-05-10 23:41:00,
2013-05-10 18:52:00,64.0,34.0,29.93,West,265,0.0,0.0,33,0.00,,,0.00,,2013-05-10 23:52:00,
2013-05-10 19:01:00,65.0,36.0,29.92,North,9,0.0,0.0,34,0.00,,,0.00,,2013-05-11 00:01:00,
2013-05-10 19:11:00,64.0,35.0,29.92,NNE,28,0.0,0.0,34,0.00,,,0.00,,2013-05-11 00:11:00,
2013-05-10 19:21:00,64.0,35.0,29.92,NNE,28,0.0,0.0,34,0.00,,,0.00,,2013-05-11 00:21:00,
2013-05-10 19:32:00,64.0,35.0,29.92,NNE,28,0.0,0.0,34,0.00,,,0.00,,2013-05-11 00:32:00,
2013-05-10 19:42:00,64.0,36.0,29.91,NNE,28,0.0,0.0,35,0.00,,,0.00,,2013-05-11 00:42:00,
2013-05-10 19:52:00,64.0,36.0,29.91,NNE,28,0.0,0.0,35,0.00,,,0.00,,2013-05-11 00:52:00,
2013-05-10 20:01:00,63.0,34.0,29.91,NNE,28,0.0,0.0,34,0.00,,,0.00,,2013-05-11 01:01:00,
2013-05-10 20:11:00,63.0,36.0,29.91,NNE,28,0.0,0.0,37,0.00,,,0.00,,2013-05-11 01:11:00,
2013-05-10 20:21:00,63.0,36.0,29.91,NNE,28,0.0,0.0,37,0.00,,,0.00,,2013-05-11 01:21:00,
2013-05-10 20:31:00,61.0,36.0,29.90,NNE,28,0.0,0.0,40,0.00,,,0.00,,2013-05-11 01:31:00,
2013-05-10 20:42:00,60.0,36.0,29.90,NNE,28,0.0,0.0,40,0.00,,,0.00,,2013-05-11 01:42:00,
2013-05-10 20:52:00,60.0,36.0,29.90,NNE,28,0.0,0.0,40,0.00,,,0.00,,2013-05-11 01:52:00,
2013-05-10 21:02:00,59.0,37.0,29.90,NNE,28,0.0,0.0,44,0.00,,,0.00,,2013-05-11 02:02:00,
2013-05-10 21:11:00,58.0,38.0,29.90,NNE,28,0.0,0.0,47,0.00,,,0.00,,2013-05-11 02:11:00,
2013-05-10 21:21:00,58.0,38.0,29.90,NNE,28,0.0,0.0,47,0.00,,,0.00,,2013-05-11 02:21:00,
2013-05-10 21:32:00,57.0,36.0,29.90,NNE,28,0.0,0.0,46,0.00,,,0.00,,2013-05-11 02:32:00,
2013-05-10 21:42:00,57.0,37.0,29.90,NNE,28,0.0,0.0,47,0.00,,,0.00,,2013-05-11 02:42:00,
2013-05-10 21:52:00,57.0,37.0,29.90,NNE,28,0.0,0.0,47,0.00,,,0.00,,2013-05-11 02:52:00,
2013-05-10 22:01:00,56.0,37.0,29.90,NNE,28,0.0,0.0,49,0.00,,,0.00,,2013-05-11 03:01:00,
2013-05-10 22:11:00,56.0,38.0,29.90,NNE,28,0.0,0.0,51,0.00,,,0.00,,2013-05-11 03:11:00,
2013-05-10 22:21:00,56.0,38.0,29.90,NNE,28,0.0,0.0,51,0.00,,,0.00,,2013-05-11 03:21:00,
2013-05-10 22:32:00,56.0,38.0,29.90,NNE,28,0.0,0.0,51,0.00,,,0.00,,2013-05-11 03:32:00,
2013-05-10 22:42:00,56.0,41.0,29.89,NNE,28,0.0,0.0,56,0.00,,,0.00,,2013-05-11 03:42:00,
2013-05-10 22:53:00,56.0,41.0,29.89,NNE,28,0.0,0.0,56,0.00,,,0.00,,2013-05-11 03:53:00,
2013-05-10 23:02:00,55.0,42.0,29.89,NNE,28,0.0,0.0,62,0.00,,,0.00,,2013-05-11 04:02:00,
2013-05-10 23:12:00,55.0,41.0,29.89,NNE,28,0.0,0.0,59,0.00,,,0.00,,2013-05-11 04:12:00,
2013-05-10 23:23:00,55.0,41.0,29.89,NNE,28,0.0,0.0,59,0.00,,,0.00,,2013-05-11 04:23:00,
2013-05-10 23:33:00,55.0,43.0,29.88,NNE,28,0.0,0.0,65,0.00,,,0.00,,2013-05-11 04:33:00,
2013-05-10 23:43:00,55.0,43.0,29.88,NNE,28,0.0,0.0,63,0.00,,,0.00,,2013-05-11 04:43:00,
2013-05-10 23:52:00,55.0,43.0,29.88,NNE,28,0.0,0.0,63,0.00,,,0.00,,2013-05-11 04:52:00,